Tracking 30009 objects as of 7-Dec-2024
HD Live streaming from Space Station
objects crossing your sky now

STARLINK-31931

Track STARLINK-31931 now!
10-day predictions
STARLINK-31931 is classified as:


NORAD ID: 59864
Int'l Code: 2024-098G
Perigee: 450.2 km
Apogee: 452.2 km
Inclination: 43.0 °
Period: 93.5 minutes
Semi major axis: 6822 km
RCS: Unknown
Launch date: May 24, 2024
Source: United States (US)
Launch site: AIR FORCE EASTERN TEST RANGE (AFETR)
Your satellite tracking list
Your tracking list is empty




NASA's NSSDC Master Catalog

Two Line Element Set (TLE):
1 59864U 24098G   24341.14372352 -.00001223  00000-0 -22022-4 0  9998
2 59864  43.0005   3.5361 0001508 261.6945  98.3740 15.40696570 31537
Source of the keplerian elements: AFSPC